Location: Smyrna_Hopewell
(35.6500°N, 81.0330°W)
Time: 17:24:45
(UTC-04:00)

Cosmos 2221 - Visible Passes

Search period start: 24 April 2014 00:00
Search period end: 04 May 2014 00:00
Orbit: 599 x 623 km, 82.5° (Epoch: 23 April)

Date Brightness Start Highest point End Pass type
(mag) Time Alt. Az. Time Alt. Az. Time Alt. Az.
24 Apr 5.6 02:39:06 10° N 02:39:30 12° N 02:39:30 12° N visible
25 Apr 5.5 02:53:47 10° N 02:54:09 12° N 02:54:09 12° N visible
26 Apr 5.5 03:08:44 10° NNW 03:08:49 11° NNW 03:08:49 11° NNW visible
28 Apr 5.7 02:01:02 10° NNE 02:01:12 11° NNE 02:01:12 11° NNE visible
29 Apr 5.6 02:15:36 10° N 02:15:53 12° N 02:15:53 12° N visible
30 Apr 5.6 02:30:26 10° NNW 02:30:35 11° NNW 02:30:35 11° NNW visible
02 May 5.7 01:22:57 10° NNE 01:23:01 10° NNE 01:23:01 10° NNE visible
03 May 5.6 01:37:23 10° N 01:37:43 12° N 01:37:43 12° N visible
